Flag for Germany Weather past 2 weeks in Geldern, North Rhine-Westphalia, Germany

41 °F

Passing clouds.

Feels Like: 38 °F
Forecast: 36 / 43 °F
Wind: 5 mph from Northeast

Location: Niederrhein

Current Time: Oct 13, 2015 at 9:22:31 PM

Latest Report: Oct 13, 2015 at 8:50 PM

Visibility: N/A

Pressure: 30.15 "Hg

Humidity: 81%

Dew point: 36 °F

Location of GeldernLocation

Historic Weather in Geldern — Graph


Geldern temperature yesterday

Maximum temperature yesterday: 52 °F (at 5:20 PM)
Minimum temperature yesterday: 36 °F (at 5:20 AM)
Average temperature yesterday: 43 °F

Past Weeks' High & Low Weather Summary

High66 °F (Oct 6, 2:20 PM)100% (Sep 29, 4:50 AM)30.63 "Hg (Sep 29, 4:50 AM)
Low36 °F (Oct 12, 5:20 AM)43% (Oct 2, 3:20 PM)29.56 "Hg (Oct 6, 4:50 AM)
Average53 °F82%30.12 "Hg
* Reported Sep 28 7:20 PM — Oct 13 7:50 PM, Geldern, Weather by CustomWeather, © 2015

Note: Actual official high and low records may vary slightly from our data, if they occured in-between our weather recording intervals... More about our weather records


Geldern weather history for previous 24 hours

Time TempWeatherWind HumidityBarometerVisibility
7:50 PM
Tue, Oct 13
41 °FPartly sunny.7 mph81%30.12 "HgN/A
7:20 PM41 °FPartly sunny.7 mph76%30.12 "HgN/A
6:50 PM41 °FPartly sunny.8 mph81%30.12 "HgN/A
6:20 PM41 °FPartly sunny.8 mph81%30.12 "Hg6 mi
5:50 PM41 °FPartly sunny.8 mph81%30.12 "Hg6 mi
5:20 PM41 °FPartly sunny.8 mph81%30.12 "Hg5 mi
4:50 PM41 °FPartly sunny.9 mph81%30.09 "Hg4 mi
4:20 PM41 °FPartly sunny.8 mph81%30.09 "Hg4 mi
3:50 PM41 °FPartly sunny.7 mph87%30.09 "Hg4 mi
3:20 PM41 °FPartly sunny.9 mph87%30.09 "Hg4 mi
2:50 PM41 °FPartly sunny.8 mph87%30.09 "Hg4 mi
2:20 PM41 °FPartly sunny.8 mph87%30.09 "Hg4 mi
1:50 PM41 °FPartly sunny.9 mph87%30.09 "Hg4 mi
1:20 PM39 °FPartly sunny.7 mph93%30.09 "Hg4 mi
12:50 PM39 °FPartly sunny.9 mph93%30.09 "Hg4 mi
12:20 PM39 °FPartly sunny.8 mph87%30.09 "Hg4 mi
11:50 AM39 °FPartly sunny.9 mph93%30.07 "Hg4 mi
11:20 AM39 °FScattered clouds.9 mph87%30.07 "Hg6 mi
10:50 AM39 °FScattered clouds.8 mph93%30.07 "Hg6 mi
10:20 AM39 °FClear.7 mph87%30.07 "Hg6 mi
9:50 AM37 °FClear.8 mph93%30.07 "Hg5 mi
9:20 AM37 °FClear.6 mph93%30.04 "Hg4 mi
8:50 AM36 °FClear.6 mph100%30.04 "Hg4 mi
8:20 AM36 °FClear.6 mph100%30.04 "Hg4 mi
7:50 AM36 °FClear.7 mph100%30.01 "Hg4 mi
7:20 AM36 °FClear.7 mph100%30.01 "Hg4 mi
6:50 AM36 °FClear.7 mph100%30.01 "Hg4 mi
6:20 AM36 °FClear.5 mph100%30.01 "Hg4 mi
5:50 AM36 °FClear.6 mph100%30.01 "Hg5 mi
5:20 AM36 °FClear.5 mph100%30.01 "Hg4 mi
4:50 AM36 °FClear.5 mph100%30.01 "Hg4 mi
11:50 PM
Mon, Oct 12
37 °FClear.3 mph100%30.04 "Hg6 mi
10:50 PM39 °FClear.3 mph93%30.04 "Hg10 mi
10:20 PM39 °FClear.2 mph93%30.04 "Hg10 mi
9:50 PM41 °FClear.3 mph87%30.04 "Hg10 mi
9:20 PM41 °FClear.3 mph87%30.04 "Hg10 mi
Weather by CustomWeather, © 2015

See weather overviewHow to use our weather pages